Location: Audinghen
(50.8518°N, 1.6129°E)
Time: 04:59:33
(UTC+00:00)

Cosmos 1975 - Pass Details

Date: 07 August 2020
Orbit: 542 x 561 km, 82.5° (Epoch: 19 September)

Event Time Altitude Azimuth Distance (km) Brightness Sun altitude
Exits shadow 00:44:34 58° 269° (W) 643 3.0 -22.1°
Maximum altitude 00:44:45 59° 283° (WNW) 638 3.0 -22.1°
Drops below altitude 10° 00:48:46 10° 4° (N) 1,841 6.6 -21.9°
Sets 00:50:59 0° 8° (N) 2,743 7.9 -21.9°
